Location: St. Louis
(38.6270°N, 90.1994°W)
Time: 00:21:13
(UTC-06:00)

Vanguard 2 - Pass Details

Date: 06 December 2021
Orbit: 553 x 2936 km, 32.9° (Epoch: 16 January)

Event Time Altitude Azimuth Distance (km) Brightness Sun altitude
Rises 12:31:44 0° 238° (WSW) 2,715 10.9 28.1°
Reaches altitude 10° 12:33:56 10° 228° (SW) 1,870 10.5 28.0°
Maximum altitude 12:37:39 33° 163° (SSE) 1,096 9.8 27.9°
Drops below altitude 10° 12:42:26 10° 100° (E) 2,433 10.2 27.7°
Sets 12:45:42 0° 91° (E) 3,699 10.9 27.5°
